Location: Bruderhein
(53.8035°N, 112.9265°W)
Time: 09:46:22
(UTC+00:00)

N. Korean satellite - Pass Details

Date: 28 November 2022
Orbit: 407 x 444 km, 97.3° (Epoch: 28 January)

Event Time Altitude Azimuth Distance (km) Brightness Sun altitude
Rises 12:00:29 0° 25° (NNE) 2,533 10.6 -28.7°
Reaches altitude 10° 12:03:01 10° 45° (NE) 1,649 9.8 -28.3°
Maximum altitude 12:05:36 19° 91° (E) 1,197 9.3 -27.9°
Drops below altitude 10° 12:08:08 10° 138° (SE) 1,631 9.7 -27.6°
Sets 12:10:38 0° 157° (SSE) 2,494 10.5 -27.2°
